Location: Newark
(40.7360°N, 74.1730°W)
Time: 13:35:29
(UTC-04:00)

Amateur Radio Satellites - All Passes

Search period start: 31 July 2014 13:05
Search period end: 01 August 2014 13:05
Location: Newark, 40.7360°N, 74.1730°W

Satellite Date Start Highest point End Downlink Frequencies (MHz)
Time Altitude Azimuth
Gurwin Techsat 1B 31 Jul 13:20:55 13:22:22 11° 58° (ENE) 13:23:49 435.225 FM
Oscar 16 31 Jul 13:32:35 13:37:40 74° 74° (ENE) 13:42:48 437.025 USB, Beacon 2401.1428
SO-50 31 Jul 13:48:25 13:51:24 17° 319° (NW) 13:54:25 436.795 FM
AO-7 31 Jul 13:51:18 13:53:22 11° 42° (NE) 13:55:26 29.400 - 29.500 MHz
KITSAT 1 31 Jul 13:51:56 13:59:09 34° 45° (NE) 14:06:19 435.175 FM
UOSAT-12 31 Jul 13:52:11 13:56:42 59° 119° (ESE) 14:01:19 437.025 FM, 437.400 FM
ITAMSAT 1 31 Jul 13:58:57 14:04:04 58° 72° (ENE) 14:09:11 435.822 SSB
RS-15 31 Jul 13:59:05 14:10:15 79° 304° (WNW) 14:21:14 29.354 - 29.394 USB, Beacon 29.352 USB
Uribyol 2 31 Jul 14:17:37 14:22:49 89° 256° (WSW) 14:28:02 436.500 FM
AO-27 31 Jul 14:18:45 14:23:59 90° 217° (SW) 14:29:14 436.795 MHz FM
TMSAT-1 31 Jul 14:30:40 14:35:26 35° 68° (ENE) 14:40:12 436.925 FM
AO-Echo 31 Jul 14:38:02 14:43:16 60° 259° (W) 14:48:32 ?
Oscar 19 31 Jul 14:44:09 14:48:19 25° 265° (W) 14:52:31 437.125 CW, 437.150 USB
JAS-1B 31 Jul 14:45:20 14:54:21 87° 74° (ENE) 15:04:20 435.800 - 435.900 CW/SSB
Gurwin Techsat 1B 31 Jul 14:56:09 15:01:28 82° 75° (ENE) 15:06:48 435.225 FM
Uosat F 31 Jul 15:01:32 15:04:27 16° 61° (ENE) 15:07:23 435.120 FM
Oscar 16 31 Jul 15:15:27 15:17:34 12° 270° (W) 15:19:41 437.025 USB, Beacon 2401.1428
Saudisat 1A 31 Jul 15:19:02 15:23:02 33° 49° (NE) 15:27:00 436.775 MHz
UOSAT-12 31 Jul 15:33:50 15:37:14 20° 317° (NW) 15:40:42 437.025 FM, 437.400 FM
AO-7 31 Jul 15:36:14 15:44:09 50° 64° (ENE) 15:52:05 29.400 - 29.500 MHz
ITAMSAT 1 31 Jul 15:40:38 15:43:55 17° 268° (W) 15:47:13 435.822 SSB
KITSAT 1 31 Jul 15:47:05 15:55:02 63° 246° (WSW) 16:02:55 435.175 FM
OPAL 31 Jul 16:01:55 16:05:10 17° 94° (E) 16:08:25 ?
AO-27 31 Jul 16:04:05 16:04:10 10° 272° (W) 16:04:16 436.795 MHz FM
TMSAT-1 31 Jul 16:10:47 16:15:21 29° 265° (W) 16:19:56 436.925 FM
RS-15 31 Jul 16:15:37 16:24:38 28° 331° (NNW) 16:33:40 29.354 - 29.394 USB, Beacon 29.352 USB
Uosat F 31 Jul 16:37:41 16:42:41 66° 258° (WSW) 16:47:43 435.120 FM
JAS-1B 31 Jul 16:39:14 16:45:57 23° 274° (W) 16:53:10 435.800 - 435.900 CW/SSB
Gurwin Techsat 1B 31 Jul 16:40:10 16:42:02 12° 271° (W) 16:43:55 435.225 FM
Saudisat 1A 31 Jul 16:58:48 17:02:31 27° 247° (WSW) 17:06:12 436.775 MHz
JAS-2 31 Jul 17:07:28 17:13:44 29° 64° (ENE) 17:19:38 435.800 - 435.900 CW/SSB, 435.910 FM
Hamsat 31 Jul 17:13:37 17:16:41 20° 67° (ENE) 17:19:46 145.90 MHz
AO-7 31 Jul 17:29:27 17:37:02 38° 262° (W) 17:44:41 29.400 - 29.500 MHz
OPAL 31 Jul 17:39:22 17:44:22 58° 290° (WNW) 17:49:24 ?
STRAND 1 31 Jul 18:30:11 18:32:41 14° 90° (E) 18:35:10 ?
RS-15 31 Jul 18:34:47 18:42:13 20° 7° (N) 18:49:43 29.354 - 29.394 USB, Beacon 29.352 USB
Hamsat 31 Jul 18:48:39 18:52:26 33° 263° (W) 18:56:15 145.90 MHz
JAS-2 31 Jul 18:50:39 18:58:20 62° 259° (W) 19:05:30 435.800 - 435.900 CW/SSB, 435.910 FM
SO-67 31 Jul 18:53:36 18:56:47 35° 73° (ENE) 18:59:59 435.3500 MHz FM
SO-50 31 Jul 18:59:39 19:00:49 11° 35° (NE) 19:01:59 436.795 FM
HO-68 31 Jul 19:06:32 19:09:34 13° 51° (NE) 19:12:35 435.675 MHz FM
STRAND 1 31 Jul 20:07:16 20:12:21 69° 286° (WNW) 20:17:24 ?
MaSat-1 31 Jul 20:23:24 20:27:11 38° 107° (ESE) 20:31:33 437.345 MHz
SO-67 31 Jul 20:28:32 20:30:00 12° 268° (W) 20:31:29 435.3500 MHz FM
SO-50 31 Jul 20:37:41 20:42:23 58° 54° (NE) 20:47:08 436.795 FM
RS-15 31 Jul 20:48:41 20:58:52 40° 41° (NE) 21:09:17 29.354 - 29.394 USB, Beacon 29.352 USB
HO-68 31 Jul 20:48:52 20:55:57 67° 70° (ENE) 21:03:02 435.675 MHz FM
UKube-1 31 Jul 21:15:56 21:20:15 67° 74° (ENE) 21:24:37 145.840 MHz, 145.915 MHz
Oscar 11 31 Jul 21:57:53 22:02:11 86° 257° (WSW) 22:06:31 145.825 FM, Beacon 2401.500 USB
MaSat-1 31 Jul 22:01:11 22:04:41 23° 309° (NW) 22:08:33 437.345 MHz
ISS 31 Jul 22:04:43 22:07:38 29° 135° (SE) 22:10:34 145.800 FM
SO-50 31 Jul 22:19:27 22:22:31 17° 250° (WSW) 22:25:37 436.795 FM
UOSAT-12 31 Jul 22:22:06 22:26:42 48° 53° (NE) 22:31:13 437.025 FM, 437.400 FM
FUNcube-1 31 Jul 22:27:49 22:32:06 73° 76° (ENE) 22:36:19 145.950 - 145.970 MHz USB
HO-68 31 Jul 22:38:46 22:44:09 23° 267° (W) 22:49:34 435.675 MHz FM
UKube-1 31 Jul 22:55:53 22:56:54 11° 270° (W) 22:57:54 145.840 MHz, 145.915 MHz
RS-15 31 Jul 23:01:02 23:11:57 68° 244° (WSW) 23:23:18 29.354 - 29.394 USB, Beacon 29.352 USB
Sapphire 31 Jul 23:15:12 23:18:59 20° 106° (ESE) 23:22:47 437.095 MHz 1200 baud AX-25 AFSK
AO-40 31 Jul 23:24:56 05:05:43 40° 182° (S) 10:29:46 Beacon 2401.320
ISS 31 Jul 23:41:11 23:44:17 35° 332° (NNW) 23:47:25 145.800 FM
PCSat 31 Jul 23:46:46 23:51:47 41° 111° (ESE) 23:56:50 145.825 MHz
UOSAT-12 01 Aug 00:03:05 00:06:30 20° 250° (WSW) 00:09:53 437.025 FM, 437.400 FM
Sapphire 01 Aug 00:56:38 01:01:56 57° 303° (WNW) 01:07:17 437.095 MHz 1200 baud AX-25 AFSK
Oscar 19 01 Aug 01:17:36 01:20:07 14° 90° (E) 01:22:37 437.125 CW, 437.150 USB
RS-15 01 Aug 01:17:37 01:22:09 13° 264° (W) 01:26:47 29.354 - 29.394 USB, Beacon 29.352 USB
ISS 01 Aug 01:19:53 01:21:45 14° 351° (N) 01:23:38 145.800 FM
PCSat 01 Aug 01:30:34 01:35:18 30° 310° (NW) 01:40:03 145.825 MHz
Oscar 10/S400 01 Aug 01:34:45 02:14:41 64° 190° (S) 11:10:52 145.825 - 145.975 CW/USB, Beacon 145.810 USB
Oscar 16 01 Aug 01:45:04 01:49:25 27° 95° (E) 01:53:45 437.025 USB, Beacon 2401.1428
ITAMSAT 1 01 Aug 02:13:00 02:16:52 21° 93° (E) 02:20:43 435.822 SSB
Uribyol 2 01 Aug 02:31:02 02:35:41 33° 97° (E) 02:40:18 436.500 FM
AO-27 01 Aug 02:32:30 02:37:10 33° 97° (E) 02:41:47 436.795 MHz FM
JAS-1B 01 Aug 02:33:50 02:41:35 31° 90° (E) 02:48:18 435.800 - 435.900 CW/SSB
Sapphire 01 Aug 02:45:02 02:46:35 11° 324° (NW) 02:48:08 437.095 MHz 1200 baud AX-25 AFSK
AO-Echo 01 Aug 02:46:03 02:50:52 46° 99° (E) 02:55:31 ?
TMSAT-1 01 Aug 02:48:15 02:50:50 14° 90° (E) 02:53:25 436.925 FM
Oscar 19 01 Aug 02:54:47 02:59:56 71° 286° (WNW) 03:05:05 437.125 CW, 437.150 USB
ISS 01 Aug 02:57:27 02:59:32 15° 12° (NNE) 03:01:37 145.800 FM
Gurwin Techsat 1B 01 Aug 03:13:02 03:17:49 33° 97° (E) 03:22:34 435.225 FM
OPAL 01 Aug 03:16:20 03:20:34 29° 65° (ENE) 03:24:49 ?
Oscar 16 01 Aug 03:24:06 03:28:49 36° 291° (WNW) 03:33:31 437.025 USB, Beacon 2401.1428
AO-7 01 Aug 03:40:45 03:44:33 14° 88° (E) 03:48:20 29.400 - 29.500 MHz
ITAMSAT 1 01 Aug 03:51:39 03:56:35 46° 290° (WNW) 04:01:29 435.822 SSB
Uribyol 2 01 Aug 04:10:37 04:15:03 30° 293° (WNW) 04:19:28 436.500 FM
AO-27 01 Aug 04:12:07 04:16:35 30° 293° (WNW) 04:21:02 436.795 MHz FM
KITSAT 1 01 Aug 04:22:25 04:27:50 20° 102° (ESE) 04:33:15 435.175 FM
JAS-1B 01 Aug 04:23:36 04:32:40 61° 292° (WNW) 04:40:21 435.800 - 435.900 CW/SSB
AO-Echo 01 Aug 04:25:37 04:29:17 21° 296° (WNW) 04:32:51 ?
TMSAT-1 01 Aug 04:26:00 04:31:17 72° 286° (WNW) 04:36:32 436.925 FM
ISS 01 Aug 04:33:37 04:36:53 46° 31° (NNE) 04:40:08 145.800 FM
PANSAT 01 Aug 04:37:35 04:39:23 13° 176° (S) 04:41:11 not established
MaSat-1 01 Aug 04:42:43 04:45:39 15° 45° (NE) 04:48:31 437.345 MHz
Uosat F 01 Aug 04:45:53 04:50:34 38° 98° (E) 04:55:12 435.120 FM
Gurwin Techsat 1B 01 Aug 04:53:05 04:57:42 31° 293° (WNW) 05:02:17 435.225 FM
OPAL 01 Aug 04:54:59 04:59:22 32° 261° (W) 05:03:47 ?
AO-7 01 Aug 05:30:14 05:38:36 77° 106° (ESE) 05:46:53 29.400 - 29.500 MHz
STRAND 1 01 Aug 05:45:28 05:49:14 21° 64° (ENE) 05:53:01 ?
JAS-2 01 Aug 06:03:22 06:06:52 17° 89° (E) 06:10:12 435.800 - 435.900 CW/SSB, 435.910 FM
ISS 01 Aug 06:10:49 06:13:23 20° 228° (SW) 06:15:57 145.800 FM
KITSAT 1 01 Aug 06:14:06 06:22:13 84° 300° (WNW) 06:30:23 435.175 FM
JAS-1B 01 Aug 06:16:31 06:21:01 15° 314° (NW) 06:25:17 435.800 - 435.900 CW/SSB
PANSAT 01 Aug 06:17:27 06:18:49 12° 189° (S) 06:20:11 not established
MaSat-1 01 Aug 06:18:29 06:23:48 87° 65° (ENE) 06:28:44 437.345 MHz
Uosat F 01 Aug 06:25:07 06:29:08 25° 295° (WNW) 06:33:08 435.120 FM
Hamsat 01 Aug 06:34:10 06:38:17 42° 98° (E) 06:42:24 145.90 MHz
Saudisat 1A 01 Aug 07:04:07 07:08:32 82° 121° (ESE) 07:12:59 436.775 MHz
STRAND 1 01 Aug 07:23:06 07:28:04 49° 260° (W) 07:33:03 ?
AO-7 01 Aug 07:24:09 07:30:34 26° 306° (NW) 07:36:57 29.400 - 29.500 MHz
JAS-2 01 Aug 07:46:53 07:52:36 59° 289° (WNW) 07:57:47 435.800 - 435.900 CW/SSB, 435.910 FM
SO-67 01 Aug 07:50:30 07:53:51 44° 99° (E) 07:57:11 435.3500 MHz FM
MaSat-1 01 Aug 07:58:40 08:00:13 11° 263° (W) 08:01:43 437.345 MHz
Sapphire 01 Aug 08:02:26 08:06:12 19° 44° (NE) 08:09:56 437.095 MHz 1200 baud AX-25 AFSK
Hamsat 01 Aug 08:11:02 08:13:56 18° 294° (WNW) 08:16:49 145.90 MHz
KITSAT 1 01 Aug 08:12:36 08:18:51 24° 323° (NW) 08:25:08 435.175 FM
HO-68 01 Aug 08:21:27 08:22:35 10° 86° (E) 08:23:43 435.675 MHz FM
PCSat 01 Aug 08:34:50 08:39:44 33° 51° (NE) 08:44:35 145.825 MHz
Saudisat 1A 01 Aug 08:46:13 08:48:42 15° 320° (NW) 08:51:12 436.775 MHz
UKube-1 01 Aug 09:06:58 09:08:20 11° 91° (E) 09:09:42 145.840 MHz, 145.915 MHz
SO-67 01 Aug 09:25:42 09:26:30 11° 295° (WNW) 09:27:18 435.3500 MHz FM
Sapphire 01 Aug 09:44:48 09:50:14 76° 244° (WSW) 09:55:38 437.095 MHz 1200 baud AX-25 AFSK
Oscar 11 01 Aug 09:46:51 09:49:47 18° 93° (E) 09:52:42 145.825 FM, Beacon 2401.500 USB
HO-68 01 Aug 10:04:18 10:11:27 71° 104° (ESE) 10:18:33 435.675 MHz FM
KITSAT 1 01 Aug 10:16:51 10:17:59 10° 353° (N) 10:19:08 435.175 FM
PCSat 01 Aug 10:18:12 10:23:09 37° 249° (WSW) 10:28:04 145.825 MHz
FUNcube-1 01 Aug 10:18:44 10:20:53 14° 92° (E) 10:23:03 145.950 - 145.970 MHz USB
UKube-1 01 Aug 10:40:38 10:44:57 62° 286° (WNW) 10:49:13 145.840 MHz, 145.915 MHz
SO-50 01 Aug 10:53:57 10:57:02 19° 110° (ESE) 11:00:09 436.795 FM
RS-15 01 Aug 11:16:39 11:23:36 19° 99° (E) 11:30:24 29.354 - 29.394 USB, Beacon 29.352 USB
Oscar 11 01 Aug 11:22:03 11:26:07 40° 288° (WNW) 11:30:11 145.825 FM, Beacon 2401.500 USB
HO-68 01 Aug 11:53:08 11:58:29 24° 302° (WNW) 12:03:50 435.675 MHz FM
FUNcube-1 01 Aug 11:53:30 11:57:33 48° 287° (WNW) 12:01:38 145.950 - 145.970 MHz USB
KITSAT 1 01 Aug 12:13:29 12:17:50 15° 25° (NNE) 12:22:10 435.175 FM
SO-50 01 Aug 12:32:54 12:37:13 47° 308° (NW) 12:41:38 436.795 FM
Oscar 19 01 Aug 12:33:57 12:37:38 20° 64° (ENE) 12:41:19 437.125 CW, 437.150 USB
UOSAT-12 01 Aug 12:35:08 12:37:39 15° 108° (ESE) 12:40:12 437.025 FM, 437.400 FM
